When you browse on this site, cookies collect data to enhance your experience and personalize the content and advertising you see.
Visit our Privacy Policy to learn more. By continuing to use the site, you agree to this use of cookies and data.
  • In Hungary
  • List of Countries
  • For 7 days
  • Water Temperature
  • Satellite Maps
  • Weather Map
  • News
  • Weather Widgets
  • user-avatar
    Login

    Hourly Weather Tulln an der Donau

    Today, 24 March, Sunday

    Time Temperature Precipitation Wind Pressure Humidity
    00:00 +12°C° 0 mm 1 mps 752 mmHg 72%
    01:00 +11°C° 0 mm 1 mps 752 mmHg 71%
    02:00 +11°C° 0 mm 1 mps 752 mmHg 72%
    03:00 +10°C° 0 mm 1 mps 751 mmHg 73%
    04:00 +10°C° 0 mm 1 mps 751 mmHg 75%
    05:00 +10°C° 0 mm 1 mps 751 mmHg 76%
    06:00 +10°C° 0 mm 1 mps 751 mmHg 77%
    07:00 +10°C° 0 mm 1 mps 751 mmHg 78%
    08:00 +12°C° 0 mm 1 mps 751 mmHg 74%
    09:00 +14°C° 0 mm 1 mps 750 mmHg 69%
    10:00 +15°C° 0 mm 2 mps 750 mmHg 65%
    11:00 +16°C° 0 mm 1 mps 749 mmHg 61%
    12:00 +19°C° 0 mm 1 mps 749 mmHg 57%
    13:00 +20°C° 0 mm 1 mps 748 mmHg 53%
    14:00 +20°C° 0 mm 1 mps 748 mmHg 52%
    15:00 +20°C° 0 mm 1 mps 748 mmHg 51%
    16:00 +20°C° 0 mm 1 mps 747 mmHg 50%
    17:00 +18°C° 0 mm 1 mps 747 mmHg 56%
    18:00 +16°C° 0 mm 1 mps 747 mmHg 63%
    19:00 +14°C° 0 mm 1 mps 746 mmHg 69%
    20:00 +14°C° 0 mm 1 mps 747 mmHg 71%
    21:00 +13°C° 0 mm 2 mps 747 mmHg 74%
    22:00 +12°C° 0 mm 2 mps 747 mmHg 76%
    23:00 +12°C° 0.1 mm 2 mps 747 mmHg 78%

    Tomorrow, 25 March, Monday

    Time Temperature Precipitation Wind Pressure Humidity
    00:00 +12°C° 0.1 mm 2 mps 747 mmHg 81%
    01:00 +12°C° 0.1 mm 1 mps 746 mmHg 83%
    02:00 +10°C° 0.2 mm 2 mps 746 mmHg 83%
    03:00 +10°C° 0.2 mm 2 mps 746 mmHg 83%
    04:00 +10°C° 0.2 mm 3 mps 745 mmHg 83%
    05:00 +9°C° 0.1 mm 3 mps 746 mmHg 83%
    06:00 +9°C° 0.1 mm 3 mps 746 mmHg 83%
    07:00 +9°C° 0.1 mm 3 mps 746 mmHg 82%
    08:00 +8°C° 0 mm 4 mps 745 mmHg 75%
    09:00 +10°C° 0 mm 4 mps 745 mmHg 67%
    10:00 +10°C° 0 mm 5 mps 745 mmHg 59%
    11:00 +10°C° 0.1 mm 6 mps 745 mmHg 54%
    12:00 +11°C° 0.1 mm 6 mps 745 mmHg 49%
    13:00 +11°C° 0.1 mm 7 mps 744 mmHg 44%
    14:00 +11°C° 0 mm 7 mps 744 mmHg 44%
    15:00 +10°C° 0 mm 7 mps 745 mmHg 44%
    16:00 +10°C° 0 mm 8 mps 745 mmHg 44%
    17:00 +8°C° 0 mm 7 mps 745 mmHg 48%
    18:00 +7°C° 0 mm 6 mps 746 mmHg 52%
    19:00 +6°C° 0 mm 5 mps 746 mmHg 56%
    20:00 +5°C° 0 mm 5 mps 747 mmHg 56%
    21:00 +5°C° 0 mm 4 mps 748 mmHg 57%
    22:00 +5°C° 0 mm 4 mps 748 mmHg 57%
    23:00 +4°C° 0 mm 4 mps 749 mmHg 60%

    Day after tomorrow, 26 March, Tuesday

    Time Temperature Precipitation Wind Pressure Humidity
    00:00 +4°C° 0 mm 4 mps 749 mmHg 62%
    01:00 +4°C° 0 mm 4 mps 750 mmHg 65%
    02:00 +3°C° 0 mm 4 mps 750 mmHg 67%
    03:00 +3°C° 0 mm 4 mps 751 mmHg 70%
    04:00 +1°C° 0 mm 4 mps 751 mmHg 72%
    05:00 +1°C° 0 mm 5 mps 752 mmHg 74%
    06:00 +1°C° 0 mm 5 mps 752 mmHg 75%
    07:00 +1°C° 0 mm 5 mps 753 mmHg 77%
    08:00 +2°C° 0 mm 5 mps 753 mmHg 71%
    09:00 +5°C° 0 mm 5 mps 753 mmHg 64%
    10:00 +5°C° 0 mm 6 mps 753 mmHg 58%
    11:00 +7°C° 0 mm 5 mps 753 mmHg 54%
    12:00 +8°C° 0 mm 5 mps 753 mmHg 50%
    13:00 +9°C° 0 mm 5 mps 753 mmHg 46%
    14:00 +9°C° 0 mm 5 mps 753 mmHg 44%
    15:00 +9°C° 0 mm 5 mps 752 mmHg 42%
    16:00 +10°C° 0 mm 5 mps 752 mmHg 40%
    17:00 +8°C° 0 mm 4 mps 753 mmHg 45%
    18:00 +8°C° 0 mm 3 mps 753 mmHg 51%
    19:00 +7°C° 0 mm 3 mps 753 mmHg 56%
    20:00 +5°C° 0 mm 3 mps 754 mmHg 58%
    21:00 +5°C° 0 mm 3 mps 754 mmHg 61%
    22:00 +4°C° 0 mm 3 mps 754 mmHg 63%
    23:00 +4°C° 0 mm 3 mps 754 mmHg 66%

    27 March, Wednesday

    Time Temperature Precipitation Wind Pressure Humidity
    00:00 +4°C° 0 mm 3 mps 754 mmHg 68%
    01:00 +3°C° 0 mm 3 mps 754 mmHg 71%
    02:00 +3°C° 0 mm 3 mps 754 mmHg 72%
    03:00 +3°C° 0 mm 3 mps 754 mmHg 72%
    04:00 +3°C° 0 mm 3 mps 754 mmHg 73%
    05:00 +3°C° 0 mm 3 mps 755 mmHg 74%
    06:00 +3°C° 0 mm 3 mps 755 mmHg 74%
    07:00 +3°C° 0 mm 3 mps 755 mmHg 74%
    08:00 +4°C° 0 mm 3 mps 755 mmHg 68%
    09:00 +5°C° 0 mm 3 mps 755 mmHg 61%
    10:00 +8°C° 0 mm 3 mps 755 mmHg 55%
    11:00 +8°C° 0 mm 3 mps 755 mmHg 53%
    12:00 +9°C° 0 mm 3 mps 755 mmHg 51%
    13:00 +9°C° 0 mm 3 mps 755 mmHg 49%
    14:00 +9°C° 0 mm 3 mps 755 mmHg 49%
    15:00 +9°C° 0 mm 3 mps 755 mmHg 48%
    16:00 +10°C° 0 mm 3 mps 755 mmHg 48%
    17:00 +9°C° 0 mm 2 mps 755 mmHg 52%
    18:00 +8°C° 0 mm 2 mps 755 mmHg 57%
    19:00 +7°C° 0 mm 2 mps 756 mmHg 61%
    20:00 +7°C° 0 mm 2 mps 756 mmHg 63%
    21:00 +7°C° 0 mm 2 mps 756 mmHg 64%
    22:00 +7°C° 0 mm 2 mps 757 mmHg 66%
    23:00 +6°C° 0 mm 2 mps 757 mmHg 69%

    28 March, Thursday

    Time Temperature Precipitation Wind Pressure Humidity
    00:00 +6°C° 0 mm 2 mps 757 mmHg 71%
    01:00 +5°C° 0 mm 2 mps 757 mmHg 74%
    02:00 +5°C° 0 mm 2 mps 757 mmHg 75%
    03:00 +5°C° 0 mm 2 mps 756 mmHg 75%
    04:00 +6°C° 0 mm 1 mps 756 mmHg 76%
    05:00 +6°C° 0 mm 1 mps 756 mmHg 77%
    06:00 +6°C° 0 mm 1 mps 757 mmHg 77%
    07:00 +6°C° 0 mm 1 mps 757 mmHg 78%
    08:00 +7°C° 0 mm 2 mps 757 mmHg 71%
    09:00 +9°C° 0 mm 2 mps 757 mmHg 65%
    10:00 +10°C° 0 mm 2 mps 757 mmHg 58%
    11:00 +12°C° 0 mm 2 mps 757 mmHg 56%
    12:00 +13°C° 0 mm 2 mps 756 mmHg 53%
    13:00 +14°C° 0 mm 1 mps 756 mmHg 51%
    14:00 +14°C° 0.1 mm 1 mps 756 mmHg 50%
    15:00 +14°C° 0.1 mm 1 mps 756 mmHg 49%
    16:00 +14°C° 0.1 mm 1 mps 755 mmHg 49%
    17:00 +13°C° 0 mm 1 mps 756 mmHg 54%
    18:00 +11°C° 0 mm 1 mps 756 mmHg 60%
    19:00 +9°C° 0 mm 0 mps 756 mmHg 65%
    20:00 +9°C° 0 mm 0 mps 756 mmHg 67%
    21:00 +10°C° 0 mm 1 mps 757 mmHg 68%
    22:00 +10°C° 0 mm 1 mps 757 mmHg 70%
    23:00 +9°C° 0 mm 1 mps 757 mmHg 72%

    29 March, Friday

    Time Temperature Precipitation Wind Pressure Humidity
    00:00 +9°C° 0 mm 1 mps 757 mmHg 74%
    01:00 +8°C° 0 mm 1 mps 757 mmHg 76%
    02:00 +8°C° 0 mm 1 mps 757 mmHg 78%
    03:00 +8°C° 0 mm 1 mps 757 mmHg 79%
    04:00 +7°C° 0 mm 1 mps 757 mmHg 81%
    05:00 +7°C° 0 mm 1 mps 757 mmHg 80%
    06:00 +7°C° 0 mm 1 mps 757 mmHg 80%
    07:00 +7°C° 0 mm 1 mps 757 mmHg 80%
    08:00 +9°C° 0 mm 1 mps 757 mmHg 73%
    09:00 +11°C° 0 mm 1 mps 757 mmHg 66%
    10:00 +12°C° 0 mm 2 mps 757 mmHg 59%
    11:00 +13°C° 0 mm 2 mps 756 mmHg 55%
    12:00 +14°C° 0 mm 2 mps 756 mmHg 50%
    13:00 +15°C° 0 mm 2 mps 756 mmHg 46%
    14:00 +15°C° 0 mm 2 mps 755 mmHg 46%
    15:00 +15°C° 0 mm 2 mps 755 mmHg 46%
    16:00 +15°C° 0 mm 2 mps 754 mmHg 46%
    17:00 +13°C° 0 mm 1 mps 755 mmHg 50%
    18:00 +12°C° 0 mm 1 mps 755 mmHg 54%
    19:00 +10°C° 0 mm 0 mps 755 mmHg 58%
    20:00 +9°C° 0 mm 0 mps 755 mmHg 60%
    21:00 +9°C° 0 mm 0 mps 755 mmHg 63%
    22:00 +9°C° 0 mm 1 mps 755 mmHg 65%
    23:00 +8°C° 0 mm 1 mps 755 mmHg 68%
    Show more